Meteopurmerend
purmerend
Purmerend - Baaienwijk



My webcam  My webcam


Onweer radar Meer informatie blitzortung!


Regen radar Meer informatie rain snow radar


Bezoek onze andere website:

CandyAppleRed WebdesignWebdesign Purmerend Candy Apple Red

MeteopurmerendBlog

Template documentation
and downloads



Het weer levert geen direct gevaar op.    Er zijn geen waarschuwingen afgegeven.

15 daagse weersverwachting Harstad (NO)

  • Overzicht
  • Per uur
  • 15 dagen
  • Extra
  • Vergelijk
  • Kaarten
  • Dagkaart
  • Meer »
  • Info
  • Statistieken
  • Directe link
    Temp 6h Neerslag Wind  
Midzomernacht Vandaag
08:00
10°
 
1
14:00
12°
 
2
20:00
12°
 
1
Midzomernacht Morgen
02:00
 
1
08:00
11°
 
1
14:00
13°
 
2
20:00
 
6
Midzomernacht Zaterdag 28 Mei
02:00
 
5
08:00
0.3 mm
6
14:00
4.7 mm
4
20:00
10°
5.3 mm
3
Midzomernacht Zondag 29 Mei
02:00
1.2 mm
2
Locatie info
Region: Troms
Latitude: 68.7973°N
Longitude: 16.5393°E
1 masl
Postcode: 9406
Temp/Neerslag /Baro Onweer/Dauwpunt
    Temp Baro 1h Neerslag Dauwpunt Wind UV Bewolking  
Midzomernacht Vandaag
07:00
10°
1002.6 hPa   8.4°
1
Windvlaag: 0.9 m/s
66%
08:00
10°
1002.7 hPa   8.2°
1
Windvlaag: -0.8 m/s
66%
09:00
10°
1002.6 hPa   7.9°
1
Windvlaag: -0.5 m/s
65%
10:00
11°
1002.7 hPa   7.6°
2
Windvlaag: -0.2 m/s
82%
11:00
11°
1002.8 hPa   6.6°
2
Windvlaag: -0.1 m/s
70%
12:00
11°
1002.9 hPa   6.5°
1
Windvlaag: 0.6 m/s
70%
13:00
12°
1002.8 hPa
11%
6.6°
1
Windvlaag: 1.1 m/s
57%
14:00
12°
1002.8 hPa
11%
6.5°
2
Windvlaag: 2.5 m/s
66%
15:00
12°
1002.6 hPa
22%
7.0°
2
Windvlaag: 2.7 m/s
70%
16:00
12°
1002.6 hPa
27%
7.6°
2
Windvlaag: 2.4 m/s
73%
17:00
11°
1002.5 hPa
35%
9.0°
1
Windvlaag: 2.6 m/s
60%
18:00
12°
1002.3 hPa
29%
9.1°
1
Windvlaag: 2.6 m/s
46%
19:00
12°
1002.1 hPa
11%
8.8°
1
Windvlaag: 2.8 m/s
40%
20:00
12°
1001.9 hPa
11%
8.4°
1
Windvlaag: 2.6 m/s
32%
21:00
12°
1001.9 hPa
11%
7.9°
1
Windvlaag: 1 m/s
25%
22:00
11°
1002.0 hPa
11%
7.7°
1
Windvlaag: 1.1 m/s
39%
23:00
10°
1001.9 hPa
11%
7.2°
1
Windvlaag: 1.3 m/s
16%
Midzomernacht Morgen
00:00
1001.9 hPa
11%
7.0°
1
Windvlaag: 1.3 m/s
11%
01:00
1001.8 hPa
11%
6.8°
1
Windvlaag: 1.1 m/s
7%
02:00
Voelt als: 8.6°
1001.8 hPa
11%
6.9°
1
Windvlaag: 1.2 m/s
15%
03:00
Voelt als: 8.3°
1001.7 hPa
11%
6.4°
1
Windvlaag: 1.2 m/s
33%
04:00
1001.8 hPa
11%
5.9°
1
Windvlaag: 1.1 m/s
48%
05:00
1001.8 hPa
11%
5.2°
1
Windvlaag: 0.8 m/s
14%
06:00
Voelt als: 9.3°
1001.6 hPa
11%
4.0°
1
Windvlaag: 0.6 m/s
44%
07:00
10°
1001.4 hPa
11%
3.4°
1
Windvlaag: 0.7 m/s
30%
08:00
11°
1001.3 hPa
46%
3.0°
1
Windvlaag: 0.1 m/s
33%
09:00
12°
1001.4 hPa
11%
2.8°
1
Windvlaag: -0 m/s
55%
10:00
12°
1001.4 hPa
11%
3.0°
1
Windvlaag: -0.3 m/s
71%
11:00
12°
1001.2 hPa
11%
3.0°
1
Windvlaag: -0.5 m/s
64%
12:00
13°
1001.0 hPa
14%
2.7°
2
Windvlaag: -1 m/s
64%
13:00
13°
1000.7 hPa
12%
2.6°
2
Windvlaag: -1.3 m/s
59%
14:00
13°
1000.5 hPa
24%
2.5°
2
Windvlaag: -1.5 m/s
59%
15:00
13°
1000.1 hPa
65%
1.9°
2
Windvlaag: -0.9 m/s
53%
16:00
13°
999.8 hPa
21%
3.5°
3
Windvlaag: -0.7 m/s
42%
17:00
13°
999.5 hPa
49%
3.9°
4
Windvlaag: -1.6 m/s
50%
18:00
12°
999.2 hPa
15%
3.8°
5
Windvlaag: -1.2 m/s
15%
19:00
11°
999.2 hPa
18%
4.8°
5
Windvlaag: -0.8 m/s
41%
20:00
Voelt als: 5.8°
999.3 hPa
68%
4.2°
6
Windvlaag: -0.8 m/s
56%
21:00
Voelt als: 4.5°
999.4 hPa
69%
5.2°
5
Windvlaag: -0.3 m/s
70%
22:00
Voelt als: 3.2°
999.2 hPa
64%
5.6°
6
Windvlaag: -3.1 m/s
69%
23:00
Voelt als: 3.6°
997.4 hPa
20%
4.2°
6
Windvlaag: -5.7 m/s
95%
Midzomernacht Zaterdag 28 Mei
00:00
Voelt als: 4.1°
997.4 hPa
17%
4.4°
5
Windvlaag: -6.5 m/s
71%
01:00
Voelt als: 4.2°
997.5 hPa
25%
4.1°
4
Windvlaag: -3.5 m/s
77%
02:00
Voelt als: 3.8°
997.4 hPa
24%
4.3°
5
Windvlaag: -4.9 m/s
76%
03:00
Voelt als: 3.6°
997.5 hPa
27%
4.5°
5
Windvlaag: -6.2 m/s
69%
04:00
Voelt als: 3.6°
997.6 hPa
21%
4.6°
6
Windvlaag: -6.8 m/s
63%
05:00
Voelt als: 3.4°
997.6 hPa
21%
4.5°
6
Windvlaag: -7.1 m/s
76%
06:00
Voelt als: 3.5°
997.7 hPa
21%
4.2°
6
Windvlaag: -7.7 m/s
73%
07:00
Voelt als: 3.7°
997.7 hPa
25%
4.2°
6
Windvlaag: -7.2 m/s
89%
08:00
Voelt als: 3.9°
997.9 hPa 0.3 mm
100%
4.0°
6
Windvlaag: -7 m/s
97%
09:00
Voelt als: 3.9°
998.1 hPa
100%
4.4°
6
Windvlaag: -6.6 m/s
91%
10:00
Voelt als: 3.8°
998.5 hPa
46%
4.5°
6
Windvlaag: -6.4 m/s
86%
11:00
Voelt als: 4.4°
998.8 hPa 0.7 mm
28%
4.7°
5
Windvlaag: -6.1 m/s
81%
12:00
Voelt als: 5.6°
999.0 hPa 1.5 mm
28%
4.5°
4
Windvlaag: -6.3 m/s
77%
13:00
Voelt als: 6.2°
999.4 hPa 1.3 mm
23%
4.6°
4
Windvlaag: -6.4 m/s
73%
14:00
Voelt als: 6.9°
999.7 hPa 1.2 mm
25%
4.6°
4
Windvlaag: -6.2 m/s
69%
15:00
Voelt als: 7.6°
1000.2 hPa 1.4 mm
28%
4.5°
4
Windvlaag: -4.9 m/s
77%
16:00
10°
Voelt als: 7.9°
1000.4 hPa 1.1 mm
23%
4.3°
4
Windvlaag: -3.2 m/s
50%
17:00
10°
1000.9 hPa 0.6 mm
21%
3.9°
4
Windvlaag: -3 m/s
38%
18:00
10°
1001.5 hPa 0.6 mm
22%
3.3°
3
Windvlaag: -1.8 m/s
48%
19:00
10°
1002.0 hPa 0.8 mm
21%
2.8°
3
Windvlaag: -0.3 m/s
52%
20:00
10°
Voelt als: 8.2°
1002.6 hPa 0.8 mm
21%
2.3°
3
Windvlaag: 0.4 m/s
66%
21:00
10°
Voelt als: 7.9°
1003.3 hPa 0.7 mm
21%
2.4°
3
Windvlaag: 0.9 m/s
76%
22:00
Voelt als: 7.6°
1004.0 hPa 0.5 mm
21%
4.5°
3
Windvlaag: 3 m/s
77%
23:00
Voelt als: 7.4°
1004.7 hPa
21%
4.7°
2
Windvlaag: 4 m/s
64%
Midzomernacht Zondag 29 Mei
00:00
Voelt als: 8.4°
1004.9 hPa
21%
5.7°
2
Windvlaag: 8.8 m/s
4%
01:00
Voelt als: 8.2°
1005.7 hPa
21%
5.4°
2
Windvlaag: 7.2 m/s
11%
02:00
Voelt als: 7.9°
1006.3 hPa
21%
5.4°
2
Windvlaag: 6.7 m/s
14%
03:00
Voelt als: 7.8°
1007.1 hPa
22%
5.4°
2
Windvlaag: 6 m/s
14%
04:00
Voelt als: 7.5°
1007.6 hPa
21%
5.6°
2
Windvlaag: 7.2 m/s
6%
05:00
Voelt als: 8.3°
1008.2 hPa
21%
5.1°
1
Windvlaag: 6.4 m/s
15%
06:00
Voelt als: 9.1°
1008.9 hPa
21%
5.7°
1
Windvlaag: 6.8 m/s
6%
Temp/Neerslag /Baro Onweer/Dauwpunt
    Temp Baro Neerslag Dauwpunt Wind Bewolking  
Midzomernacht Vandaag
08:00
10°
1002.7 hPa   8.2°
1
66%
11:00
11°
1002.8 hPa   6.6°
2
70%
14:00
12°
1002.8 hPa   6.5°
2
66%
17:00
11°
1002.5 hPa   9.0°
1
60%
20:00
12°
1001.9 hPa   8.4°
1
32%
23:00
10°
1001.9 hPa   7.2°
1
16%
Midzomernacht Morgen
02:00
Voelt als: 8.6°
1001.8 hPa   6.9°
1
15%
05:00
1001.8 hPa   5.2°
1
14%
08:00
11°
1001.3 hPa   3.0°
1
33%
11:00
12°
1001.2 hPa   3.0°
1
64%
14:00
13°
1000.5 hPa   2.5°
2
59%
17:00
13°
999.5 hPa   3.9°
4
50%
20:00
Voelt als: 5.8°
999.3 hPa   4.2°
6
56%
23:00
Voelt als: 3.6°
997.4 hPa   4.2°
6
95%
Midzomernacht Zaterdag 28 Mei
02:00
Voelt als: 3.8°
997.4 hPa   4.3°
5
76%
05:00
Voelt als: 3.4°
997.6 hPa   4.5°
6
76%
08:00
Voelt als: 3.9°
997.9 hPa 0.3 mm 4.0°
6
97%
11:00
Voelt als: 4.4°
998.8 hPa 0.7 mm 4.7°
5
81%
14:00
Voelt als: 6.9°
999.7 hPa 4.0 mm 4.6°
4
69%
17:00
10°
1000.9 hPa 3.0 mm 3.9°
4
38%
20:00
10°
Voelt als: 8.2°
1002.6 hPa 2.3 mm 2.3°
3
66%
23:00
Voelt als: 7.4°
1004.7 hPa 1.2 mm 4.7°
2
64%
Midzomernacht Zondag 29 Mei
02:00
Voelt als: 7.9°
1006.3 hPa   5.4°
2
14%
05:00
Voelt als: 8.3°
1008.2 hPa   5.1°
1
15%
08:00
11°
1010.1 hPa   5.9°
2
44%
11:00
12°
1012.6 hPa 0.5 mm 5.8°
2
1%
14:00
13°
1013.0 hPa 0.5 mm 5.9°
2
1%
17:00
13°
1012.7 hPa 0.5 mm 6.1°
2
1%
20:00
12°
1012.5 hPa 0.5 mm 6.9°
2
1%
23:00
11°
1012.7 hPa 0.5 mm 7.1°
1
1%
Midzomernacht Maandag 30 Mei
02:00
10°
Voelt als: 9.7°
1012.4 hPa 0.5 mm 6.3°
1
1%
05:00
10°
1012.4 hPa 0.5 mm 6.5°
1
1%
08:00
11°
1012.3 hPa 0.5 mm 6.3°
1
1%
11:00
13°
1012.4 hPa 0.5 mm 5.9°
2
1%
14:00
14°
1013.2 hPa 0.5 mm 5.1°
5
0%
17:00
14°
1015.0 hPa 0.5 mm 5.1°
5
0%
20:00
13°
1016.0 hPa 0.5 mm 5.3°
3
1%
23:00
12°
1016.4 hPa 0.5 mm 6.3°
2
1%
Midzomernacht Dinsdag 31 Mei
02:00
11°
1017.2 hPa 0.5 mm 6.7°
2
1%
05:00
11°
1017.4 hPa 0.5 mm 6.7°
1
1%
08:00
12°
1017.6 hPa 0.5 mm 6.6°
2
1%
11:00
14°
1017.6 hPa 0.5 mm 5.2°
3
1%
14:00
15°
1017.1 hPa 0.5 mm 4.7°
4
1%
17:00
16°
1016.8 hPa 0.5 mm 4.6°
3
0%
20:00
15°
1017.4 hPa 0.5 mm 5.3°
3
0%
23:00
13°
1018.1 hPa 0.5 mm 5.7°
2
1%
Midzomernacht Woensdag 01 Jun
02:00
12°
1017.9 hPa 0.5 mm 5.3°
2
0%
05:00
12°
1017.4 hPa 0.5 mm 5.6°
2
0%
08:00
13°
1017.0 hPa 0.5 mm 5.2°
1
0%
11:00
14°
1016.3 hPa 0.5 mm 5.3°
2
1%
14:00
14°
1015.6 hPa 0.5 mm 6.1°
3
1%
17:00
14°
1015.1 hPa 0.5 mm 6.1°
4
1%
20:00
12°
1014.4 hPa 0.5 mm 6.5°
4
1%
23:00
11°
1014.1 hPa 0.5 mm 6.6°
3
1%
Midzomernacht Donderdag 02 Jun
02:00
10°
Voelt als: 8.6°
1013.5 hPa 0.5 mm 6.7°
3
1%
05:00
10°
Voelt als: 8.8°
1013.7 hPa   6.7°
2
1%
08:00
10°
1013.7 hPa 1.1 mm 7.0°
2
1%
14:00
11°
1015.0 hPa 1.6 mm 7.1°
2
1%
20:00
10°
1016.6 hPa 1.6 mm 7.6°
1
1%
Midzomernacht Vrijdag 03 Jun
02:00
Voelt als: 7.9°
1018.8 hPa 1.9 mm 7.4°
2
1%
08:00
Voelt als: 7.6°
1021.1 hPa 1.9 mm 6.4°
2
1%
14:00
11°
1023.4 hPa 1.9 mm 5.3°
4
1%
20:00
Voelt als: 6.7°
1025.2 hPa 1.9 mm 6.4°
3
1%
Midzomernacht Zaterdag 04 Jun
02:00
1026.4 hPa 1.9 mm 5.4°
1
1%
08:00
Voelt als: 8.8°
1025.1 hPa 2.0 mm 4.7°
0
1%
14:00
10°
Voelt als: 8.8°
1024.9 hPa 2.0 mm 5.7°
2
1%
20:00
Voelt als: 4.8°
1025.6 hPa 2.3 mm 4.9°
2
1%
Midzomernacht Zondag 05 Jun
02:00
Voelt als: 8.6°
1017.8 hPa 0.6 mm 5.4°
0
67%
08:00
10°
Voelt als: 9.5°
1017.1 hPa 0.5 mm 5.1°
1
66%
14:00
10°
1016.9 hPa 0.5 mm 5.5°
2
62%
20:00
Voelt als: 8.5°
1016.3 hPa 1.3 mm 5.2°
2
64%
Midzomernacht Maandag 06 Jun
02:00
Voelt als: 7.3°
1016.2 hPa 0.6 mm 5.3°
2
65%
08:00
Voelt als: 8.1°
1015.8 hPa 0.6 mm 5.2°
2
68%
14:00
10°
Voelt als: 8.7°
1015.7 hPa 0.6 mm 5.4°
3
67%
20:00
Voelt als: 8.1°
1015.2 hPa 0.7 mm 5.3°
2
70%
Midzomernacht Dinsdag 07 Jun
02:00
Voelt als: 8.2°
1015.1 hPa 0.6 mm 5.3°
1
68%
08:00
10°
Voelt als: 9.2°
1014.8 hPa 0.5 mm 5.4°
1
68%
14:00
10°
1014.6 hPa 0.5 mm 5.6°
3
71%
20:00
10°
Voelt als: 8.7°
1014.1 hPa 0.6 mm 5.5°
2
69%
Midzomernacht Woensdag 08 Jun
02:00
1013.9 hPa 0.4 mm 5.3°
1
72%
08:00
10°
Voelt als: 9.6°
1013.2 hPa 0.4 mm 4.9°
1
72%
14:00
11°
1013.0 hPa 0.2 mm 4.9°
2
61%
20:00
10°
1012.4 hPa 0.2 mm 5.5°
2
57%
Midzomernacht Donderdag 09 Jun
02:00
1012.1 hPa 0.6 mm 6.0°
1
59%
08:00
10°
1011.3 hPa 0.8 mm 6.2°
1
64%
14:00
12°
1011.2 hPa 1.1 mm 6.6°
2
67%
20:00
11°
1010.7 hPa 0.9 mm 6.9°
2
62%
Midzomernacht Vrijdag 10 Jun
02:00
10°
1010.8 hPa 0.8 mm 6.7°
0
57%
  CAPE Lifted Index Hail Supercell Tornado SRH 3km CL BTM PRES CL TOP PRES Swiss DWD icon SMHI TS
Midzomernacht Vandaag
07:00 0 J/kg 4.3 K 0 % 0 % 0 % 0 m²/s² 0 0 6.28 3
08:00 0 J/kg 4.1 K 0 % 0 % 0 % 0 m²/s² 0 0 6.35 3
09:00 0 J/kg 4.0 K 0 % 0 % 0 % 0 m²/s² 0 0 6.04 3
10:00 0 J/kg 3.9 K 0 % 0 % 0 % 0 m²/s² 0 0 4.86 3
11:00 1 J/kg 4.0 K 0 % 0 % 0 % 0 m²/s² 0 0 4.72 3
12:00 0 J/kg 3.7 K 0 % 0 % 0 % 0 m²/s² 0 0 4.27 3
13:00 2 J/kg 3.7 K 0 % 0 % 0 % 0 m²/s² 0 0 4.24 3
14:00 0 J/kg 3.2 K 0 % 0 % 0 % 0 m²/s² 0 0 4.04 3
15:00 5 J/kg 2.7 K 0 % 0 % 0 % 0 m²/s² 0 0 3.51 3
16:00 9 J/kg 2.0 K 0 % 0 % 0 % 0 m²/s² 0 0 2.66 3
17:00 41 J/kg 1.3 K 0 % 0 % 0 % 0 m²/s² 0 0 1.66 3
18:00 40 J/kg 1.1 K 0 % 0 % 0 % 0 m²/s² 0 0 1.37 3
19:00 0 J/kg 1.8 K 0 % 0 % 0 % 0 m²/s² 0 0 2.16 2
20:00 0 J/kg 2.5 K 0 % 0 % 0 % 0 m²/s² 0 0 3.22 2
21:00 0 J/kg 2.6 K 0 % 0 % 0 % 0 m²/s² 0 0 3.5 0
22:00 0 J/kg 3.0 K 0 % 0 % 0 % 0 m²/s² 0 0 3.84 2
23:00 0 J/kg 3.0 K 0 % 0 % 0 % 0 m²/s² 0 0 4.08 0
Midzomernacht Morgen
00:00 0 J/kg 3.4 K 0 % 0 % 0 % 0 m²/s² 0 0 4.54 0
01:00 0 J/kg 4.8 K 0 % 0 % 0 % 0 m²/s² 0 0 6.03 0
02:00 0 J/kg 5.0 K 0 % 0 % 0 % 0 m²/s² 0 0 6.89 1
03:00 0 J/kg 5.0 K 0 % 0 % 0 % 0 m²/s² 0 0 8.36 1
04:00 0 J/kg 5.3 K 0 % 0 % 0 % 0 m²/s² 0 0 10.13 3
05:00 0 J/kg 5.7 K 0 % 0 % 0 % 0 m²/s² 0 0 10.29 0
06:00 0 J/kg 6.2 K 0 % 0 % 0 % 0 m²/s² 0 0 10.34 3
07:00 0 J/kg 6.4 K 0 % 0 % 0 % 0 m²/s² 0 0 10.78 3
08:00 0 J/kg 6.7 K 0 % 0 % 0 % 0 m²/s² 0 0 11.08 3
09:00 0 J/kg 7.0 K 0 % 0 % 0 % 0 m²/s² 0 0 11.53 3
10:00 0 J/kg 7.4 K 0 % 0 % 0 % 0 m²/s² 0 0 10.82 3
11:00 0 J/kg 7.3 K 0 % 0 % 0 % 0 m²/s² 0 0 10.21 3
12:00 0 J/kg 7.3 K 0 % 0 % 0 % 0 m²/s² 0 0 9.43 3
13:00 0 J/kg 7.4 K 0 % 0 % 0 % 0 m²/s² 0 0 10.01 3
14:00 0 J/kg 7.4 K 0 % 0 % 0 % 0 m²/s² 0 0 9.11 3
15:00 0 J/kg 6.8 K 0 % 0 % 0 % 0 m²/s² 0 0 7.76 3
16:00 0 J/kg 6.0 K 0 % 0 % 0 % 0 m²/s² 0 0 6.54 3
17:00 0 J/kg 4.2 K 0 % 0 % 0 % 0 m²/s² 0 0 4.41 3
18:00 0 J/kg 3.9 K 0 % 0 % 0 % 0 m²/s² 0 0 4.35 2
19:00 0 J/kg 3.3 K 0 % 0 % 0 % 0 m²/s² 0 0 4.41 3
20:00 0 J/kg 3.4 K 0 % 0 % 0 % 0 m²/s² 0 0 5.53 80
21:00 0 J/kg 4.0 K 0 % 0 % 0 % 0 m²/s² 0 0 8.77 61
22:00 0 J/kg 4.8 K 0 % 0 % 0 % 0 m²/s² 0 0 9.78 3
23:00 0 J/kg 4.6 K 0 % 0 % 0 % 0 m²/s² 0 0 8.74 3
Midzomernacht Zaterdag 28 Mei
00:00 0 J/kg 5.7 K 0 % 0 % 0 % 0 m²/s² 0 0 8.55 2
01:00 0 J/kg 5.6 K 0 % 0 % 0 % 0 m²/s² 0 0 7.01 2
02:00 0 J/kg 5.1 K 0 % 0 % 0 % 0 m²/s² 0 0 5.55 2
03:00 0 J/kg 4.0 K 0 % 0 % 0 % 0 m²/s² 0 0 4.6 2
04:00 0 J/kg 3.5 K 0 % 0 % 0 % 0 m²/s² 0 0 4.46 2
05:00 0 J/kg 3.8 K 0 % 0 % 0 % 0 m²/s² 0 0 4.97 3
06:00 0 J/kg 4.4 K 0 % 0 % 0 % 0 m²/s² 0 0 6.11 3
07:00 1 J/kg 4.7 K 0 % 0 % 0 % 0 m²/s² 0 0 6.26 3
08:00 6 J/kg 4.7 K 0 % 0 % 0 % 0 m²/s² 0 0 5.84 61
09:00 10 J/kg 5.0 K 0 % 0 % 0 % 0 m²/s² 0 0 5.78 61
10:00 11 J/kg 4.7 K 0 % 0 % 0 % 0 m²/s² 0 0 5.27 3
11:00 12 J/kg 4.9 K 0 % 0 % 0 % 0 m²/s² 0 0 5.59 2
12:00 13 J/kg 4.2 K 0 % 0 % 0 % 0 m²/s² 0 0 5.1 2
13:00 10 J/kg 4.0 K 0 % 0 % 0 % 0 m²/s² 0 0 5.14 2
14:00 3 J/kg 4.2 K 0 % 0 % 0 % 0 m²/s² 0 0 5.7 3
15:00 6 J/kg 5.0 K 0 % 0 % 0 % 0 m²/s² 0 0 6.86 2
16:00 1 J/kg 5.0 K 0 % 0 % 0 % 0 m²/s² 0 0 7.25 2
17:00 0 J/kg 4.7 K 0 % 0 % 0 % 0 m²/s² 0 0 7.31 2
18:00 0 J/kg 4.5 K 0 % 0 % 0 % 0 m²/s² 0 0 6.21 2
19:00 0 J/kg 3.4 K 0 % 0 % 0 % 0 m²/s² 0 0 4.54 2
20:00 0 J/kg 3.1 K 0 % 0 % 0 % 0 m²/s² 0 0 4.09 2
21:00 0 J/kg 2.2 K 0 % 0 % 0 % 0 m²/s² 0 0 2.56 2
22:00 0 J/kg 0.8 K 0 % 0 % 0 % 0 m²/s² 0 0 1.7 2
23:00 0 J/kg 0.9 K 0 % 0 % 0 % 0 m²/s² 0 0 2.52 2
Midzomernacht Zondag 29 Mei
00:00 0 J/kg 2.0 K 0 % 0 % 0 % 0 m²/s² 0 0 4.82 1
01:00 0 J/kg 2.2 K 0 % 0 % 0 % 0 m²/s² 0 0 5.5 1
02:00 0 J/kg 2.5 K 0 % 0 % 0 % 0 m²/s² 0 0 5.83 1
03:00 0 J/kg 2.7 K 0 % 0 % 0 % 0 m²/s² 0 0 4.5 2
04:00 0 J/kg 3.4 K 0 % 0 % 0 % 0 m²/s² 0 0 4.42 1
05:00 0 J/kg 4.7 K 0 % 0 % 0 % 0 m²/s² 0 0 5.42 0
06:00 0 J/kg 3.2 K 0 % 0 % 0 % 0 m²/s² 0 0 4.43 0
Temp Baro Wind Neerslag
  EWN Forecast EWN WRFDA DWD ICON FMI HIRLAM MET Norway GFS
Midzomernacht Vandaag
08:00 10.3° 1002.7 hPa 1.4 m/s 0.0 mm 12.8° 999.6 hPa 2.7 m/s 0.0 mm 10.2° 1002.9 hPa 1.2 m/s -2.0 mm 9.2° 1003.4 hPa 1.6 m/s 0.0 mm 11.2° 1001.6 hPa 1.1 m/s
11:00 10.8° 1002.8 hPa 1.8 m/s 0.0 mm 14.0° 999.6 hPa 7.3 m/s 0.0 mm 10.5° 1003.2 hPa 1.1 m/s 0.0 mm 9.9° 1003.5 hPa 1.5 m/s 0.0 mm 12.4° 1001.5 hPa 0.8 m/s
14:00 11.9° 1002.8 hPa 1.8 m/s 0.0 mm 14.6° 999.4 hPa 6.4 m/s 1.1 mm 10.7° 1003.2 hPa 0.8 m/s 0.0 mm 12.6° 1003.7 hPa 1.5 m/s 0.0 mm 13.8° 1001.4 hPa 2.0 m/s
17:00 11.5° 1002.5 hPa 1.2 m/s 0.0 mm 14.2° 999.1 hPa 5.6 m/s 1.2 mm 10.7° 1002.9 hPa 0.4 m/s 0.0 mm 11.2° 1003.4 hPa 0.7 m/s 0.0 mm 13.8° 1001.2 hPa 2.6 m/s
20:00 11.9° 1001.9 hPa 1.0 m/s 0.0 mm 14.1° 999.2 hPa 5.6 m/s 1.2 mm 10.5° 1002.2 hPa 0.4 m/s 0.0 mm 11.7° 1003.1 hPa 1.1 m/s 0.0 mm 13.2° 1001.3 hPa 1.8 m/s
23:00 10.0° 1001.9 hPa 0.9 m/s 0.0 mm 12.2° 999.2 hPa 3.4 m/s 1.2 mm 9.3° 1002.0 hPa 0.6 m/s 0.0 mm 9.8° 1003.4 hPa 1.0 m/s 0.0 mm 12.1° 1001.2 hPa 1.6 m/s
Midzomernacht Morgen
02:00 8.6° 1001.8 hPa 1.0 m/s 0.0 mm 9.7° 999.4 hPa 3.0 m/s 1.2 mm 8.7° 1001.8 hPa 0.6 m/s 0.0 mm 7.5° 1003.6 hPa 0.8 m/s 0.0 mm 10.6° 1001.0 hPa 1.6 m/s
05:00 8.8° 1001.8 hPa 0.9 m/s 0.0 mm 11.0° 999.0 hPa 2.0 m/s 1.2 mm 9.0° 1001.3 hPa 0.8 m/s 0.0 mm 7.8° 1003.4 hPa 1.1 m/s 0.0 mm 10.8° 1000.8 hPa 1.6 m/s
08:00 11.1° 1001.3 hPa 0.7 m/s 0.0 mm 13.3° 998.4 hPa 0.3 m/s 1.2 mm 11.0° 1000.3 hPa 0.6 m/s 0.0 mm 11.0° 1003.1 hPa 1.5 m/s 0.0 mm 12.1° 1000.2 hPa 0.4 m/s
11:00 12.5° 1001.2 hPa 1.3 m/s 0.0 mm 13.9° 998.0 hPa 3.4 m/s 1.2 mm 12.2° 999.7 hPa 0.9 m/s 0.0 mm 13.6° 1003.2 hPa 1.9 m/s 0.0 mm 13.3° 999.8 hPa 2.0 m/s
14:00 13.1° 1000.5 hPa 2.2 m/s 0.0 mm 15.0° 996.5 hPa 4.9 m/s 1.2 mm 11.1° 998.8 hPa 0.7 m/s 0.0 mm 14.9° 1002.8 hPa 3.6 m/s 0.0 mm 13.1° 998.5 hPa 3.1 m/s
17:00 12.7° 999.5 hPa 3.7 m/s 0.0 mm 13.5° 995.4 hPa 7.6 m/s 1.2 mm 12.0° 997.5 hPa 1.9 m/s 0.2 mm 13.5° 1002.2 hPa 5.0 m/s 0.0 mm 10.8° 997.2 hPa 4.6 m/s
20:00 8.7° 999.3 hPa 5.6 m/s 0.0 mm 9.6° 995.6 hPa 7.1 m/s 1.2 mm 8.7° 996.8 hPa 3.1 m/s 0.4 mm 8.9° 1001.4 hPa 7.7 m/s 0.0 mm 7.6° 997.0 hPa 5.1 m/s
23:00 7.1° 997.4 hPa 5.8 m/s 0.0 mm 8.4° 995.6 hPa 6.5 m/s 1.2 mm 7.2° 997.0 hPa 2.6 m/s 0.6 mm 6.6° 996.5 hPa 3.9 m/s
Midzomernacht Zaterdag 28 Mei
02:00 7.0° 997.4 hPa 4.9 m/s 0.0 mm 7.8° 996.0 hPa 6.7 m/s 1.2 mm 7.1° 996.8 hPa 2.9 m/s 0.0 mm 7.0° 996.0 hPa 1.6 m/s
05:00 7.0° 997.6 hPa 5.9 m/s 0.0 mm 7.1° 996.0 hPa 6.9 m/s 1.6 mm 7.6° 997.0 hPa 2.3 m/s 0.0 mm 7.4° 996.5 hPa 1.0 m/s
08:00 7.3° 997.9 hPa 5.9 m/s 0.3 mm 7.9° 996.2 hPa 6.6 m/s 1.6 mm 7.6° 997.2 hPa 2.9 m/s 0.1 mm 8.1° 996.8 hPa 1.1 m/s
11:00 7.4° 998.8 hPa 4.8 m/s 0.7 mm 7.4° 996.5 hPa 5.1 m/s 2.2 mm 8.5° 998.5 hPa 2.4 m/s 0.1 mm 8.8° 997.6 hPa 1.8 m/s
14:00 9.2° 999.7 hPa 4.1 m/s 4.0 mm 9.8° 996.9 hPa 4.6 m/s 3.0 mm 9.9° 999.5 hPa 1.6 m/s 0.0 mm 9.3° 999.1 hPa 1.6 m/s
17:00 10.2° 1000.9 hPa 3.7 m/s 3.0 mm 11.5° 998.4 hPa 3.8 m/s 3.0 mm 10.9° 1000.8 hPa 2.1 m/s 0.0 mm 10.3° 1001.6 hPa 1.3 m/s
20:00 9.9° 1002.6 hPa 3.3 m/s 2.3 mm 12.5° 1000.1 hPa 3.8 m/s 3.0 mm 10.4° 1002.5 hPa 1.1 m/s 0.0 mm 9.5° 1004.3 hPa 3.0 m/s
23:00 8.5° 1004.7 hPa 2.1 m/s 1.2 mm 11.6° 1001.8 hPa 3.9 m/s 3.1 mm 8.7° 1004.8 hPa 0.6 m/s 0.0 mm 8.8° 1006.5 hPa 1.3 m/s
Midzomernacht Zondag 29 Mei
02:00 8.6° 1006.3 hPa 1.7 m/s 0.0 mm 10.7° 1003.9 hPa 4.3 m/s 3.1 mm 8.1° 1006.9 hPa 1.0 m/s 0.0 mm 8.5° 1008.3 hPa 1.9 m/s
05:00 8.7° 1008.2 hPa 1.4 m/s 0.0 mm 10.8° 1006.5 hPa 4.9 m/s 3.1 mm 8.2° 1008.7 hPa 0.5 m/s 0.0 mm 9.0° 1009.8 hPa 1.4 m/s
08:00 10.9° 1010.1 hPa 1.8 m/s 0.0 mm 12.4° 1008.3 hPa 5.9 m/s 3.1 mm 10.5° 1010.5 hPa 0.8 m/s 0.0 mm 10.3° 1011.4 hPa 1.7 m/s
11:00 11.7° 1012.6 hPa 1.6 m/s 0.5 mm 11.7° 1012.6 hPa 1.6 m/s 0.5 mm
14:00 12.7° 1013.0 hPa 2.0 m/s 0.5 mm 12.7° 1013.0 hPa 2.0 m/s 0.5 mm
17:00 12.7° 1012.7 hPa 2.1 m/s 0.5 mm 12.7° 1012.7 hPa 2.1 m/s 0.5 mm
20:00 11.9° 1012.5 hPa 1.5 m/s 0.5 mm 11.9° 1012.5 hPa 1.5 m/s 0.5 mm
23:00 10.9° 1012.7 hPa 0.9 m/s 0.5 mm 10.9° 1012.7 hPa 0.9 m/s 0.5 mm
Midzomernacht Maandag 30 Mei
02:00 10.0° 1012.4 hPa 1.4 m/s 0.5 mm 10.0° 1012.4 hPa 1.4 m/s 0.5 mm
05:00 10.3° 1012.4 hPa 0.8 m/s 0.5 mm 10.3° 1012.4 hPa 0.8 m/s 0.5 mm
08:00 11.5° 1012.3 hPa 0.7 m/s 0.5 mm 11.5° 1012.3 hPa 0.7 m/s 0.5 mm
11:00 13.5° 1012.4 hPa 2.2 m/s 0.5 mm 13.5° 1012.4 hPa 2.2 m/s 0.5 mm
14:00 14.2° 1013.2 hPa 5.5 m/s 0.5 mm 14.2° 1013.2 hPa 5.5 m/s 0.5 mm
17:00 13.6° 1015.0 hPa 4.7 m/s 0.5 mm 13.6° 1015.0 hPa 4.7 m/s 0.5 mm
20:00 12.8° 1016.0 hPa 3.5 m/s 0.5 mm 12.8° 1016.0 hPa 3.5 m/s 0.5 mm
23:00 12.0° 1016.4 hPa 2.4 m/s 0.5 mm 12.0° 1016.4 hPa 2.4 m/s 0.5 mm
Midzomernacht Dinsdag 31 Mei
02:00 11.1° 1017.2 hPa 1.8 m/s 0.5 mm 11.1° 1017.2 hPa 1.8 m/s 0.5 mm
05:00 11.3° 1017.4 hPa 1.2 m/s 0.5 mm 11.3° 1017.4 hPa 1.2 m/s 0.5 mm
08:00 12.3° 1017.6 hPa 2.2 m/s 0.5 mm 12.3° 1017.6 hPa 2.2 m/s 0.5 mm
11:00 14.3° 1017.6 hPa 2.7 m/s 0.5 mm 14.3° 1017.6 hPa 2.7 m/s 0.5 mm
14:00 15.4° 1017.1 hPa 3.9 m/s 0.5 mm 15.4° 1017.1 hPa 3.9 m/s 0.5 mm
17:00 15.9° 1016.8 hPa 3.3 m/s 0.5 mm 15.9° 1016.8 hPa 3.3 m/s 0.5 mm
20:00 15.0° 1017.4 hPa 3.5 m/s 0.5 mm 15.0° 1017.4 hPa 3.5 m/s 0.5 mm
23:00 13.2° 1018.1 hPa 2.1 m/s 0.5 mm 13.2° 1018.1 hPa 2.1 m/s 0.5 mm
Midzomernacht Woensdag 01 Jun
02:00 11.6° 1017.9 hPa 1.5 m/s 0.5 mm 11.6° 1017.9 hPa 1.5 m/s 0.5 mm
05:00 11.9° 1017.4 hPa 1.6 m/s 0.5 mm 11.9° 1017.4 hPa 1.6 m/s 0.5 mm
08:00 13.0° 1017.0 hPa 0.9 m/s 0.5 mm 13.0° 1017.0 hPa 0.9 m/s 0.5 mm
11:00 13.9° 1016.3 hPa 2.4 m/s 0.5 mm 13.9° 1016.3 hPa 2.4 m/s 0.5 mm
14:00 13.9° 1015.6 hPa 3.2 m/s 0.5 mm 13.9° 1015.6 hPa 3.2 m/s 0.5 mm
17:00 13.9° 1015.1 hPa 4.1 m/s 0.5 mm 13.9° 1015.1 hPa 4.1 m/s 0.5 mm
20:00 12.4° 1014.4 hPa 3.7 m/s 0.5 mm 12.4° 1014.4 hPa 3.7 m/s 0.5 mm
23:00 10.7° 1014.1 hPa 2.8 m/s 0.5 mm 10.7° 1014.1 hPa 2.8 m/s 0.5 mm
Midzomernacht Donderdag 02 Jun
02:00 9.8° 1013.5 hPa 2.6 m/s 0.5 mm 9.8° 1013.5 hPa 2.6 m/s 0.5 mm
05:00 9.8° 1013.7 hPa 2.2 m/s 0.5 mm 9.8° 1013.7 hPa 2.2 m/s 0.5 mm
08:00 10.3° 1013.7 hPa 1.8 m/s 0.6 mm 10.3° 1013.7 hPa 1.8 m/s 0.6 mm
14:00 10.9° 1015.0 hPa 1.6 m/s 0.8 mm 10.9° 1015.0 hPa 1.6 m/s 0.8 mm
20:00 10.2° 1016.6 hPa 0.8 m/s 0.9 mm 10.2° 1016.6 hPa 0.8 m/s 0.9 mm
Midzomernacht Vrijdag 03 Jun
02:00 8.5° 1018.8 hPa 1.6 m/s 1.0 mm 8.5° 1018.8 hPa 1.6 m/s 1.0 mm
08:00 9.0° 1021.1 hPa 2.4 m/s 1.0 mm 9.0° 1021.1 hPa 2.4 m/s 1.0 mm
14:00 11.1° 1023.4 hPa 3.7 m/s 1.0 mm 11.1° 1023.4 hPa 3.7 m/s 1.0 mm
20:00 8.6° 1025.2 hPa 3.2 m/s 1.0 mm 8.6° 1025.2 hPa 3.2 m/s 1.0 mm
Midzomernacht Zaterdag 04 Jun
02:00 6.7° 1026.4 hPa 0.7 m/s 1.0 mm 6.7° 1026.4 hPa 0.7 m/s 1.0 mm
08:00 8.8° 1025.1 hPa 0.3 m/s 1.0 mm 8.8° 1025.1 hPa 0.3 m/s 1.0 mm
14:00 9.8° 1024.9 hPa 2.2 m/s 1.0 mm 9.8° 1024.9 hPa 2.2 m/s 1.0 mm
20:00 6.6° 1025.6 hPa 2.4 m/s 1.3 mm 6.6° 1025.6 hPa 2.4 m/s 1.3 mm
Midzomernacht Zondag 05 Jun
02:00 8.6° 1017.8 hPa 0.2 m/s 0.6 mm
08:00 9.5° 1017.1 hPa 0.5 m/s 0.5 mm
14:00 10.3° 1016.9 hPa 2.0 m/s 0.5 mm
20:00 9.2° 1016.3 hPa 1.7 m/s 1.3 mm
Midzomernacht Maandag 06 Jun
02:00 8.2° 1016.2 hPa 1.7 m/s 0.6 mm
08:00 9.0° 1015.8 hPa 1.9 m/s 0.6 mm
14:00 9.9° 1015.7 hPa 2.6 m/s 0.6 mm
20:00 9.3° 1015.2 hPa 2.4 m/s 0.7 mm
Midzomernacht Dinsdag 07 Jun
02:00 8.5° 1015.1 hPa 1.3 m/s 0.6 mm
08:00 9.5° 1014.8 hPa 1.4 m/s 0.5 mm
14:00 10.4° 1014.6 hPa 2.7 m/s 0.5 mm
20:00 9.6° 1014.1 hPa 2.1 m/s 0.6 mm
Midzomernacht Woensdag 08 Jun
02:00 8.7° 1013.9 hPa 0.9 m/s 0.4 mm
08:00 9.6° 1013.2 hPa 0.8 m/s 0.4 mm
14:00 11.0° 1013.0 hPa 2.1 m/s 0.2 mm
20:00 10.3° 1012.4 hPa 1.7 m/s 0.2 mm
Midzomernacht Donderdag 09 Jun
02:00 9.3° 1012.1 hPa 0.7 m/s 0.6 mm
08:00 10.4° 1011.3 hPa 0.5 m/s 0.8 mm
14:00 11.7° 1011.2 hPa 2.1 m/s 1.1 mm
20:00 10.9° 1010.7 hPa 1.9 m/s 0.9 mm
Midzomernacht Vrijdag 10 Jun
02:00 9.8° 1010.8 hPa 0.4 m/s 0.8 mm
FMI Hirlam - 7.5 km EWN WRFDA - 12 km DWD ICON - 7 km GFS - 25 km Basiskaart






























































Updatetijd (Europe/Amsterdam) Resolutie Lengte Stap
FMI Hirlam 01:45, 07:45, 13:45, 19:45 7.5 km 49h 1h
EWN WRFDA 04:15, 10:15, 16:15, 22:15 12 km 73h 1h
DWD ICON 05:45, 11:45, 17:45, 23:45 7 km 75h 1h
GFS 02:15, 08:15, 14:15, 20:15 25 km 237h 3h
30+ mm
25-30 mm
20-25 mm
15-20 mm
10-15 mm
6-10 mm
4-6 mm
2-4 mm
1-2 mm
0.5-1 mm
0.2-0.5 mm
0.1-0.2 mm
30+ mm
25-30 mm
20-25 mm
15-20 mm
10-15 mm
6-10 mm
4-6 mm
2-4 mm
1-2 mm
0.5-1 mm
0.2-0.5 mm
0.1-0.2 mm
Sneeuwval
Natte sneeuw
Hagel
Vorst
30+ mm
25-30 mm
20-25 mm
15-20 mm
10-15 mm
6-10 mm
4-6 mm
2-4 mm
1-2 mm
0.5-1 mm
0.2-0.5 mm
0.1-0.2 mm
Sneeuwval
Natte sneeuw
Hagel
Vorst
Onweer
50 mm
40 mm
30 mm
26 mm
22 mm
18 mm
14 mm
10 mm
9 mm
8 mm
7 mm
6 mm
5 mm
4.5 mm
4 mm
3.5 mm
3 mm
2.5 mm
2 mm
1.5 mm
1 mm
0.8 mm
0.6 mm
0.4 mm
0.2 mm
0.05 mm
35°
30°
25°
20°